This is the latest recevied weather packets stored in our database for station/object IK1YPD-13. If no packets are shown the sender has not sent any weather packets the latest 10 day(s).
| Time | Temp. | Humidity | Pressure | Rain* | Wind** | Luminosity | Snow |
|---|---|---|---|---|---|---|---|
| 1787692935 | 22.22° C | 89% | 1011 hPa | - | - | - | - |
| 1787692035 | 22.22° C | 88% | 1011 hPa | - | - | - | - |
| 1787691135 | 22.22° C | 89% | 1011 hPa | - | - | - | - |
| 1787690235 | 22.22° C | 89% | 1011 hPa | - | - | - | - |
| 1787689335 | 22.78° C | 87% | 1010 hPa | - | - | - | - |
| 1787688435 | 22.22° C | 86% | 1010 hPa | - | - | - | - |
| 1787687535 | 22.78° C | 86% | 1010 hPa | - | - | - | - |
| 1787686635 | 23.33° C | 84% | 1010 hPa | - | - | - | - |
| 1787685734 | 23.33° C | 83% | 1010 hPa | - | - | - | - |
| 1787684834 | 23.89° C | 80% | 1010 hPa | - | - | - | - |
| 1787683934 | 23.89° C | 79% | 1010 hPa | - | - | - | - |
| 1787683034 | 24.44° C | 78% | 1009 hPa | - | - | - | - |
| 1787682134 | 24.44° C | 76% | 1009 hPa | - | - | - | - |
| 1787681234 | 25° C | 75% | 1009 hPa | - | - | - | - |
| 1787680334 | 25.56° C | 73% | 1009 hPa | - | - | - | - |
| 1787679434 | 26.11° C | 69% | 1009 hPa | - | - | - | - |
| 1787678534 | 26.11° C | 68% | 1009 hPa | - | - | - | - |
| 1787677634 | 26.11° C | 66% | 1009 hPa | - | - | - | - |
| 1787676734 | 26.11° C | 64% | 1009 hPa | - | - | - | - |
| 1787675834 | 26.11° C | 64% | 1008 hPa | - | - | - | - |
| 1787674934 | 26.67° C | 63% | 1008 hPa | - | - | - | - |
| 1787674034 | 26.67° C | 62% | 1008 hPa | - | - | - | - |
| 1787673134 | 27.22° C | 61% | 1008 hPa | - | - | - | - |
| 1787672234 | 26.67° C | 61% | 1008 hPa | - | - | - | - |
| 1787671333 | 26.67° C | 61% | 1008 hPa | - | - | - | - |
* Rain since midnight (hover to see other rain measurements)
** Current wind speed in m/s (hover to see current wind gust speed)